Macomb, IL

9:10 AM CST on January 22, 2018 (GMT -0600)
Macomb Municipal

Weather History for KMQB - February, 2014

Change the Weather History Date:

Monday, February 3, 2014

  Actual Average (KBRL) Record (KBRL)
Temperature  
Mean Temperature -4 °F -  
Max Temperature 14 °F 38 °F 69 °F (1992)
Min Temperature -21 °F 23 °F -26 °F (1996)
Degree Days  
Heating Degree Days 68    
Moisture  
Dew Point -6 °F    
Average Humidity 78    
Maximum Humidity 91    
Minimum Humidity 58    
Precipitation  
Precipitation 0.00 in - - ()
Sea Level Pressure  
Sea Level Pressure 30.38 in    
Wind  
Wind Speed 2 mph (NE)    
Max Wind Speed 7 mph    
Max Gust Speed -    
Visibility 10 miles    
Events      
Averages and records for this station are not official NWS values.
T = Trace of Precipitation, MM = Missing Value Source: NWS Daily Summary

Daily Weather History Graph

Daily Weather History Graph

Search for Another Location

Airport or City:

Trip Planner

Search our weather history database for the weather conditions in past years. The results will help you decide how hot, cold, wet, or windy it might be!

Date:

Astronomy

Feb. 03, 2014 Rise Set
Actual Time 7:10 AM CST 5:23 PM CST
Civil Twilight 6:41 AM CST 5:51 PM CST
Nautical Twilight 6:08 AM CST 6:24 PM CST
Astronomical Twilight 5:36 AM CST 6:56 PM CST
Moon 9:11 AM CST (2/3) 10:15 PM CST (2/3)
Length of Visible Light 11h 10m
Length of Day
10h 13m
Waxing Crescent, 20% of the Moon is Illuminated
Feb 3
Waxing Crescent
Feb 6
First Quarter
Feb 14
Full
Feb 22
Last Quarter
Mar 1
New

Hourly Weather History & Observations

Time (CST) Temp. Windchill Dew Point Humidity Pressure Visibility Wind Dir Wind Speed Gust Speed Precip Events Conditions
12:15 AM -8.0 °F -19.2 °F -11.0 °F 86% 30.36 in 10.0 mi NW 4.6 mph - N/A   Clear
12:35 AM -10.5 °F -24.0 °F -14.1 °F 84% 30.36 in 10.0 mi NNW 5.8 mph - N/A   Clear
12:55 AM -13.4 °F -25.5 °F -17.0 °F 84% 30.36 in 10.0 mi NNW 4.6 mph - N/A   Clear
1:15 AM -9.2 °F -18.4 °F -13.0 °F 83% 30.36 in 10.0 mi NW 3.5 mph - N/A   Clear
1:35 AM -10.3 °F - -13.5 °F 86% 30.36 in 10.0 mi Calm Calm - N/A   Clear
1:55 AM -10.5 °F - -13.9 °F 85% 30.36 in 10.0 mi Calm Calm - N/A   Clear
2:15 AM -13.0 °F - -17.9 °F 79% 30.36 in 10.0 mi Calm Calm - N/A   Clear
2:35 AM -10.8 °F -20.2 °F -14.4 °F 84% 30.37 in 10.0 mi WNW 3.5 mph - N/A   Clear
2:55 AM -7.2 °F -16.1 °F -10.5 °F 86% 30.37 in 10.0 mi NW 3.5 mph - N/A   Clear
3:15 AM -8.5 °F -21.6 °F -12.5 °F 83% 30.37 in 10.0 mi WNW 5.8 mph - N/A   Clear
3:35 AM -14.6 °F -24.5 °F -18.8 °F 82% 30.38 in 10.0 mi NW 3.5 mph - N/A   Clear
3:55 AM -10.3 °F -21.9 °F -14.3 °F 83% 30.38 in 10.0 mi NW 4.6 mph - N/A   Clear
4:15 AM -13.2 °F -28.8 °F -17.7 °F 80% 30.38 in 10.0 mi WNW 6.9 mph - N/A   Clear
4:35 AM -15.0 °F -29.3 °F -19.5 °F 80% 30.38 in 10.0 mi NW 5.8 mph - N/A   Clear
4:55 AM -15.7 °F -28.2 °F -19.7 °F 82% 30.38 in 10.0 mi WNW 4.6 mph - N/A   Clear
5:15 AM -21.1 °F - -26.7 °F 75% 30.38 in 10.0 mi Calm Calm - N/A   Clear
5:35 AM -16.6 °F - -20.6 °F 82% 30.39 in 10.0 mi Calm Calm - N/A   Clear
5:55 AM -15.5 °F - -20.9 °F 77% 30.39 in 10.0 mi Calm Calm - N/A   Clear
6:15 AM -14.4 °F - -18.6 °F 82% 30.39 in 10.0 mi Calm Calm - N/A   Clear
6:35 AM -13.5 °F - -17.7 °F 82% 30.39 in 10.0 mi Calm Calm - N/A   Clear
6:55 AM -14.6 °F - -19.5 °F 79% 30.39 in 7.0 mi Calm Calm - N/A   Clear
7:15 AM -17.5 °F - -22.2 °F 79% 30.39 in 10.0 mi Calm Calm - N/A   Clear
7:35 AM -17.0 °F - -22.0 °F 78% 30.40 in 10.0 mi Calm Calm - N/A   Clear
7:55 AM -16.4 °F - -21.6 °F 77% 30.40 in 10.0 mi Calm Calm - N/A   Clear
8:15 AM -15.3 °F - -20.2 °F 79% 30.39 in 10.0 mi Calm Calm - N/A   Clear
8:35 AM -10.5 °F - -15.0 °F 80% 30.40 in 10.0 mi Calm Calm - N/A   Clear
8:55 AM -9.0 °F - -13.7 °F 80% 30.39 in 10.0 mi Calm Calm - N/A   Clear
9:15 AM -8.5 °F - -12.6 °F 82% 30.41 in 10.0 mi Calm Calm - N/A   Clear
9:35 AM -4.9 °F - -8.7 °F 84% 30.42 in 10.0 mi Calm Calm - N/A   Clear
9:55 AM -2.6 °F - -6.0 °F 85% 30.42 in 10.0 mi Calm Calm - N/A   Clear
10:15 AM 0.9 °F - -2.7 °F 85% 30.42 in 10.0 mi Calm Calm - N/A   Clear
10:35 AM 1.8 °F - -1.5 °F 86% 30.42 in 10.0 mi Calm Calm - N/A   Clear
10:55 AM 3.7 °F - 0.5 °F 86% 30.43 in 10.0 mi Calm Calm - N/A   Clear
11:15 AM 5.0 °F - 2.1 °F 88% 30.43 in 10.0 mi Calm Calm - N/A   Clear
11:35 AM 6.6 °F - 3.9 °F 89% 30.43 in 10.0 mi Calm Calm - N/A   Clear
11:55 AM 8.2 °F 1.6 °F 5.7 °F 89% 30.42 in 10.0 mi East 3.5 mph - N/A   Clear
12:15 PM 9.5 °F 3.0 °F 7.3 °F 91% 30.40 in 10.0 mi ESE 3.5 mph - N/A   Clear
12:35 PM 10.4 °F 2.2 °F 7.9 °F 90% 30.39 in 10.0 mi East 4.6 mph - N/A   Clear
12:55 PM 10.8 °F 4.5 °F 7.9 °F 88% 30.38 in 10.0 mi East 3.5 mph - N/A   Clear
1:15 PM 11.3 °F 3.3 °F 6.1 °F 80% 30.37 in 10.0 mi East 4.6 mph - N/A   Clear
1:35 PM 11.7 °F 3.7 °F 5.5 °F 76% 30.36 in 10.0 mi East 4.6 mph - N/A   Clear
1:55 PM 12.6 °F 4.8 °F 5.0 °F 72% 30.36 in 10.0 mi East 4.6 mph - N/A   Clear
2:15 PM 12.9 °F - 5.0 °F 71% 30.36 in 10.0 mi Calm Calm - N/A   Clear
2:35 PM 13.8 °F - 5.4 °F 69% 30.36 in 10.0 mi Calm Calm - N/A   Clear
2:55 PM 14.9 °F - 2.5 °F 58% 30.36 in 10.0 mi Calm Calm - N/A   Clear
3:15 PM 14.7 °F - 3.4 °F 61% 30.36 in 10.0 mi Calm Calm - N/A   Clear
3:35 PM 14.5 °F - 5.0 °F 66% 30.36 in 10.0 mi Calm Calm - N/A   Clear
3:55 PM 14.0 °F - 2.1 °F 59% 30.37 in 10.0 mi Calm Calm - N/A   Clear
4:15 PM 13.1 °F 7.1 °F 1.6 °F 60% 30.37 in 10.0 mi ENE 3.5 mph - N/A   Clear
4:35 PM 12.0 °F 4.1 °F 1.0 °F 61% 30.35 in 10.0 mi ENE 4.6 mph - N/A   Clear
4:55 PM 10.2 °F 2.0 °F 0.1 °F 64% 30.36 in 10.0 mi NNE 4.6 mph - N/A   Clear
5:15 PM 8.2 °F -1.8 °F -0.0 °F 69% 30.35 in 10.0 mi NNE 5.8 mph - N/A   Clear
5:35 PM 7.3 °F 0.5 °F -0.6 °F 70% 30.35 in 10.0 mi ENE 3.5 mph - N/A   Clear
5:55 PM 6.4 °F -0.5 °F -0.8 °F 72% 30.36 in 10.0 mi ENE 3.5 mph - N/A   Clear
6:15 PM 6.4 °F -0.5 °F -1.3 °F 71% 30.36 in 10.0 mi ENE 3.5 mph - N/A   Clear
6:35 PM 4.6 °F -2.5 °F -2.2 °F 73% 30.36 in 10.0 mi East 3.5 mph - N/A   Clear
6:55 PM 4.1 °F - -2.6 °F 74% 30.36 in 10.0 mi Calm Calm - N/A   Clear
7:15 PM 5.5 °F - -1.5 °F 73% 30.36 in 10.0 mi Calm Calm - N/A   Clear
7:35 PM 6.3 °F - -1.3 °F 71% 30.37 in 10.0 mi Calm Calm - N/A   Clear
7:55 PM 0.1 °F -7.7 °F -5.4 °F 77% 30.36 in 10.0 mi ENE 3.5 mph - N/A   Clear
8:15 PM 3.0 °F -4.4 °F -2.4 °F 78% 30.36 in 10.0 mi East 3.5 mph - N/A   Clear
8:35 PM 2.3 °F - -2.7 °F 79% 30.36 in 10.0 mi Calm Calm - N/A   Clear
8:55 PM 4.5 °F -2.7 °F -1.7 °F 76% 30.36 in 10.0 mi ESE 3.5 mph - N/A   Clear
9:15 PM 3.7 °F -3.6 °F -2.2 °F 76% 30.35 in 10.0 mi ESE 3.5 mph - N/A   Clear
9:35 PM 1.9 °F -5.6 °F -3.5 °F 78% 30.35 in 10.0 mi ESE 3.5 mph - N/A   Clear
9:55 PM 3.2 °F -4.2 °F -2.2 °F 78% 30.35 in 10.0 mi SE 3.5 mph - N/A   Clear
10:15 PM 1.6 °F - -2.9 °F 81% 30.35 in 10.0 mi Calm Calm - N/A   Clear
10:35 PM 1.6 °F - -2.9 °F 81% 30.35 in 10.0 mi Calm Calm - N/A   Clear
10:55 PM 2.5 °F - -2.4 °F 80% 30.36 in 10.0 mi Calm Calm - N/A   Clear
11:15 PM 2.5 °F - -2.0 °F 81% 30.36 in 10.0 mi Calm Calm - N/A   Clear
11:35 PM 3.2 °F - -1.3 °F 82% 30.36 in 10.0 mi Calm Calm - N/A   Clear
11:55 PM 3.2 °F - -1.7 °F 80% 30.37 in 10.0 mi Calm Calm - N/A   Clear